Regional Weather Roundup
Issued by NWS Green Bay, WI

Home | Current Version | Previous Version | Text Only | Print | Product List | Glossary On
Versions: 1 2 3 4 5 6 7 8 9 10 11 12 13 14 15 16 17 18 19 20 21 22 23 24 25 26 27 28 29 30 31 32 33 34 35 36 37 38 39 40 41 42 43 44 45 46 47 48 49 50
000
ASUS43 KGRB 240611
RWRGRB

NORTH-CENTRAL AND NORTHEAST WISCONSIN REGIONAL WEATHER ROUNDUP
NATIONAL WEATHER SERVICE GREEN BAY WI
100 AM CDT TUE OCT 24 2017

WIZ005-009-010>012-018-019-240700-
NORTH CENTRAL WISCONSIN

CITY           SKY/WX    TMP DP  RH WIND       PRES   REMARKS
IRONWOOD       CLOUDY    43  41  93 NW16G23   29.67F
MANITOWISH WTR DRIZZLE   41  41 100 NW15G21   29.63S
ARBOR VITAE    CLOUDY    43  41  94 NW20G29   29.60F
EAGLE RIVER    DRIZZLE   45  44  99 NW15G26   29.56F
LAND O LAKES   RAIN      46  44  93 NW10G20   29.59F
RHINELANDER    LGT RAIN  45  44  97 NW16G25   29.58F
PHILLIPS       DRIZZLE   41  40  97 NW13G20   29.65F
ANTIGO         CLOUDY    47  44  91 N20G28    29.54S
TOMAHAWK       LGT RAIN  43  41  93 NW13G20   29.60F
MERRILL        DRIZZLE   45  44  97 N14G21    29.59S
$$

WIZ013-073-240700-
NORTHEAST WISCONSIN

CITY           SKY/WX    TMP DP  RH WIND       PRES   REMARKS
IRON MOUNTAIN  CLOUDY    49  38  65 NW12      29.49F
MARINETTE      CLOUDY    48  43  82 NW7       29.48F
OCONTO         CLOUDY    47  44  88 NW6       29.48F
$$

WIZ017-030-035>037-045-240700-
CENTRAL WISCONSIN

CITY           SKY/WX    TMP DP  RH WIND       PRES   REMARKS
MEDFORD        DRIZZLE   42  40  91 NW15G24   29.62S
WAUSAU         LGT RAIN  46  43  89 NW14G25   29.56S
MOSINEE        LGT RAIN  45  45 100 NW21G30   29.58S
MARSHFIELD     LGT RAIN  46  43  89 NW14      29.60F
WISC RAPIDS    LGT RAIN  47  50 100 NW17G25   29.59F
STEVENS POINT  LGT RAIN  46  46 100 NW12G20   29.57S
WAUPACA        DRIZZLE   52  49  90 NW9G16    29.53F
SHAWANO        CLOUDY    52  45  76 NW8       29.50F
CLINTONVILLE   NOT AVBL
WAUTOMA        LGT RAIN N/A N/A N/A NW17G23   29.55F
$$

WIZ038-039-048-051-240700-
FOX VALLEY

CITY           SKY/WX    TMP DP  RH WIND       PRES   REMARKS
NWS GREEN BAY  CLOUDY    49  47  93 NW10      29.48F
APPLETON       CLOUDY    48  43  81 NW12G17   29.49F
OSHKOSH        CLOUDY    50  47  89 NW13      29.50F
FOND DU LAC    LGT RAIN  51  46  83 NW12G21   29.51F
$$

WIZ022-050-052-240700-
EAST CENTRAL WISCONSIN

CITY           SKY/WX    TMP DP  RH WIND       PRES   REMARKS
EPHRAIM        LGT RAIN  48  44  85 NW7       29.45F
WASHINGTON ISL DRIZZLE   49  44  83 N14       29.43F
STURGEON BAY   CLOUDY    49  46  90 NW7       29.47
MANITOWOC      CLOUDY    48  46  93 W6        29.48F
SHEBOYGAN      CLOUDY    49  47  93 W6        29.49F
$$

LMZ563-521-522-541>543-240700-
LAKESHORE

STATION/POSITION TIME  TEMP    WIND        PRES    VSBY  WAVE
                       AIR SEA DIR/SP/G                  HT/PER
                 (UTC) (F)     (DEG/KT/KT) (MB)    (MI)  (FT/S)
SHEBOYGAN LKSHOR 0600   50     260/  4/  5  998.4F
KEWAUNEE LKSHORE 0548   50     300/  6/  9  997.2F
NORTHPORT PIER   0600   53     320/ 18/ 24  996.6
N MID LAKE BUOY  0550   50 56  330/ 25/ 31  996.0F         4/ 5
S GREEN BAY BUOY 0600   51 58  310/ 12/ 12  998.3
SISTER BAY LKSHO 0604   51     340/ 19/ 22   N/A
MENOMINEE LKSHOR 0548   48     300/  4/  7  997.8F
$$




USA.gov is the U.S. government's official web portal to all federal, state and local government web resources and services.